« Back
NWS Peachtree City, Ga » Text Product » GA Regional Weather Roundup


Printer-friendly Version
Current Version              Previous Versions:   1  2  3  4  5  6  7  8  9  

Regional Weather Roundup

098
ASUS42 KFFC 210703
RWRGA
WEATHER ROUNDUP FOR GEORGIA
NATIONAL WEATHER SERVICE PEACHTREE CITY GA
300 AM EDT TUE OCT 21 2014

NOTE: "FAIR" INDICATES FEW OR NO CLOUDS BELOW 12,000 FEET WITH NO
SIGNIFICANT WEATHER AND/OR OBSTRUCTIONS TO VISIBILITY.

* = USE WITH CAUTION. THE STATIONS MARKED WITH AN ASTERISK MAY NOT
REPORT WEATHER SUCH AS PRECIPITATION, FOG, OR THUNDER AND ARE NOT
QUALITY CONTROLLED BY NWS.

THE REMARK "TC" DENOTES TEMPERATURE READING IN DEGREES CELSIUS.

GAZ001>058-210800-
NORTH GEORGIA

CITY           SKY/WX    TMP DP  RH WIND       PRES   REMARKS
ATLANTA        CLEAR     57  50  77 NW6       30.00F
ATHENS         CLEAR     53  51  93 CALM      29.99F
CHAMBLEE       CLEAR     50  48  93 CALM      30.01S
PEACHTREE CITY CLEAR     49  47  93 CALM      30.02S
ROME           CLEAR     49  47  93 NE3       30.02S
WEST ATLANTA   CLEAR     51  49  92 CALM      30.01S
GAINESVILLE    CLEAR     54  53  97 W3        30.02S
CARTERSVILLE   CLEAR     48  46  93 CALM      30.02F


CITY           SKY/WX    TMP DP  RH WIND       PRES   REMARKS
DALTON*        FOG       46  46 100 CALM      30.02S VSB 3/4
MARIETTA       CLEAR     53  50  91 CALM      30.01S
$$

GAZ059>098-102>109-210800-
CENTRAL GEORGIA

CITY           SKY/WX    TMP DP  RH WIND       PRES   REMARKS
AUGUSTA-BUSH   CLEAR     50  48  93 CALM      29.98F
AUGUSTA-DANIEL CLEAR     60  50  69 CALM      29.99S
COLUMBUS       CLEAR     54  52  93 CALM      30.01S
MACON          CLEAR     50  50 100 NW3       30.00S
ROBINS AFB     CLEAR     53  52  95 CALM      30.00S


CITY           SKY/WX    TMP DP  RH WIND       PRES   REMARKS
LAGRANGE*      CLEAR     51  50  97 CALM      30.02S FOG
SYLVANIA*      PTCLDY    60  60  98 CALM      29.98F
MILLEDGEVILLE* CLEAR     54  54 100 CALM      29.99F
$$

GAZ099>101-110>166-210800-
SOUTH GEORGIA

CITY           SKY/WX    TMP DP  RH WIND       PRES   REMARKS
SAVANNAH       MOCLDY    67  63  87 N5        29.96F
VALDOSTA       CLEAR     59  55  87 CALM      29.98S
ALMA           PTCLDY    61  59  93 CALM      29.97F
ST SIMONS      PTCLDY    65  65 100 SW7       29.96S
FT STEWART     CLOUDY    66  63  91 CALM      29.95F
ALBANY         PTCLDY    58  56  93 CALM      30.01S
HUNTER AFB     LGT RAIN  66  66 100 NW8       29.94S
MOODY AFB      CLEAR     60  57  90 NW3       29.97F
BRUNSWICK      PTCLDY    64  63  94 CALM      29.97S


CITY           SKY/WX    TMP DP  RH WIND       PRES   REMARKS
BAINBRIDGE*    CLEAR     61  59  94 NW3       29.99S
MOULTRIE*      CLEAR     61  59  94 CALM      30.00S
VIDALIA*       PTCLDY    59  59 100 CALM      29.99S
WAYCROSS*      PTCLDY    66  65  98 CALM      29.97F FOG
DOUGLAS*       PTCLDY    63  59  88 CALM      29.99F
$$



USA.gov is the U.S. government's official web portal to all federal, state and local government web resources and services.